Printer-friendly version

IAU Minor Planet Center

Minor Planet Center

MPEC 2005-B37 : 2005 BG14

The following Minor Planet Electronic Circular may be linked-to from your own Web pages, but must not otherwise be redistributed electronically.


Read MPEC 2005-B36 Read MPEC 2005-B38


M.P.E.C. 2005-B37                                Issued 2005 Jan. 21, 17:06 UT

     The Minor Planet Electronic Circulars contain information on unusual
         minor planets and routine data on comets.  They are published
   on behalf of Commission 20 of the International Astronomical Union by the
          Minor Planet Center, Smithsonian Astrophysical Observatory,
                          Cambridge, MA 02138, U.S.A.

                  Supported in part by the Brinson Foundation
             Prepared using the Tamkin Foundation Computer Network

                              MPC@CFA.HARVARD.EDU
          URL http://cfa-www.harvard.edu/iau/mpc.html  ISSN 1523-6714

                                   2005 BG14

Observations:
     K05B14G* C2005 01 20.13560 07 54 34.86 +73 25 32.9          17.0 R EB037699
     K05B14G  C2005 01 20.14789 07 54 29.26 +73 24 31.4                 EB037699
     K05B14G  C2005 01 20.16018 07 54 23.68 +73 23 31.0                 EB037699
     K05B14G  C2005 01 20.17249 07 54 18.13 +73 22 30.2                 EB037699
     K05B14G 7C2005 01 20.21236 07 53 59.81 +73 19 14.1          17.4 R EB037696
     K05B14G 7C2005 01 20.21553 07 53 58.33 +73 18 58.6          17.3 R EB037696
     K05B14G 7C2005 01 20.21871 07 53 56.87 +73 18 42.9          17.5 R EB037696
     K05B14G 5C2005 01 20.23426 07 53 50.43 +73 17 22.0          17.5 R EB037673
     K05B14G 5C2005 01 20.23976 07 53 47.92 +73 16 55.1                 EB037673
     K05B14G 5C2005 01 20.24427 07 53 45.81 +73 16 32.7                 EB037673
     K05B14G 5C2005 01 20.25098 07 53 42.75 +73 15 59.1                 EB037673
     K05B14G 2C2005 01 20.46975 07 52 04.31 +72 57 29.3          17.4 R EB037H06
     K05B14G 2C2005 01 20.47716 07 52 01.21 +72 56 52.0          17.5 R EB037H06
     K05B14G 2C2005 01 20.48462 07 51 58.43 +72 56 13.3          16.9 R EB037H06
     K05B14G 5C2005 01 21.27193 07 47 32.46 +71 54 00.1          17.8 R EB037673
     K05B14G 5C2005 01 21.27413 07 47 31.70 +71 53 50.2                 EB037673
     K05B14G 5C2005 01 21.28003 07 47 29.60 +71 53 23.5                 EB037673
     K05B14G 5C2005 01 21.28478 07 47 27.89 +71 53 01.8                 EB037673

Observer details:
673 Table Mountain Observatory, Wrightwood.  Observer J. Young.  0.6-m
    reflector + CCD.
696 Whipple Observatory, Mt. Hopkins.  Observer K. Smalley.  1.2-m reflector
    + CCD.
699 Lowell Observatory-LONEOS.  Observer B. A. Skiff.  0.59-m LONEOS Schmidt
    + CCD.
H06 New Mexico Skies Observatory.  Observer R. Hutsebaut.  0.25-m reflector
    + CCD.

Orbital elements:
2005 BG14
Epoch 2005 Jan. 10.0 TT = JDT 2453380.5                 MPC
M  16.82642              (2000.0)            P               Q
n   0.35949780     Peri.  280.49587     +0.89542139     -0.25892874
a   1.9588682      Node    95.24889     +0.38556279     +0.85775074
e   0.7238804      Incl.   21.32809     -0.22262496     +0.44409411
P   2.74           H   19.1           G   0.15
From 18 observations 2005 Jan. 20-21.

Ephemeris:
2005 BG14                a,e,i = 1.96, 0.72, 21                  q = 0.5409
Date    TT    R. A. (2000) Decl.     Delta      r     Elong.  Phase     V
2005 01 20    07 55.46   +73 37.1    0.214    1.125   126.5    44.7    17.7
2005 01 30    07 27.56   +63 54.0    0.353    1.248   131.7    36.1    18.8
2005 02 09    07 25.65   +58 33.4    0.501    1.366   130.4    33.4    19.7
2005 02 19    07 30.63   +54 45.3    0.660    1.479   126.5    32.5    20.4
2005 03 01    07 39.13   +51 41.7    0.827    1.588   121.5    32.2    21.1
2005 03 11    07 49.79   +49 03.6    1.002    1.691   115.9    31.9    21.6

Kyle E. Smalley              (C) Copyright 2005 MPC           M.P.E.C. 2005-B37

Read MPEC 2005-B36 Read MPEC 2005-B38


Our Web policy. Index to the CBAT/MPC/ICQ pages.


Valid HTML 4.01!